Regional Weather Roundup
Issued by NWS

Home | Current Version | Previous Version | Text Only | Print | Product List | Glossary On
Versions: 1 2 3 4 5 6 7 8 9 10 11 12 13 14 15 16 17 18 19 20 21 22 23 24 25 26 27 28 29 30 31 32 33 34 35 36 37 38 39 40 41 42 43 44 45 46 47 48 49 50
000
ASUS46 KSEW 301610
RWRWA

WASHINGTON REGIONAL WEATHER ROUNDUP
NATIONAL WEATHER SERVICE SEATTLE WA
900 AM PDT SAT AUG 30 2014

NOTE:"FAIR" INDICATES FEW OR NO CLOUDS BELOW 12,000 FEET WITH NO
SIGNIFICANT WEATHER AND/OR OBSTRUCTIONS TO VISIBILITY.

WAZ505-507>509-301700-
SEATTLE, TACOMA, EVERETT, AND VICINITY

CITY           SKY/WX    TMP DP  RH WIND       PRES   REMARKS
EVERETT        CLOUDY    59  57  93 SE8       29.91F
BOEING FIELD   CLOUDY    63  57  81 S3        29.91S
RENTON         LGT RAIN  61  60  97 CALM      29.91S
SEATAC AIRPORT CLOUDY    60  57  89 CALM      29.93S
JBLM-MCCHORD   HVY RAIN  59  57  94 SE3       29.92S FOG
PUYALLUP       NOT AVBL
JBLM-FT LEWIS  NOT AVBL
TACOMA NARROWS RAIN      59  56  89 SE3       29.92S FOG
$$

WAZ001-503-506-510-514-515-301700-
NORTH INTERIOR

CITY           SKY/WX    TMP DP  RH WIND       PRES   REMARKS
BELLINGHAM     PTSUNNY   61  55  81 SE7       29.89F
FRIDAY HARBOR  FOG       57  56  96 CALM      29.91S VSB 1/4
EASTSOUND      LGT RAIN  59  55  88 CALM      29.88S
PORT ANGELES   CLOUDY    60  55  83 CALM      29.90S
NAS WHIDBEY    PTSUNNY   62  57  83 SE7       29.91S
BURLINGTON     PTSUNNY   61  59  94 CALM      29.91F
$$

WAZ020-022-039-040-504-511-512-301700-
SOUTHWEST INTERIOR

CITY           SKY/WX    TMP DP  RH WIND       PRES   REMARKS
SHELTON        LGT RAIN  59  58  96 CALM      29.89S FOG
OLYMPIA        LGT RAIN  59  57  93 NE3       29.91S FOG
CHEHALIS       PTSUNNY   63  59  88 S6        29.90S FOG
KELSO          CLOUDY    61  57  88 SE8       29.95R
VANCOUVER      CLOUDY    64  56  75 SE7       29.93S
SCAPPOOSE, OR  CLOUDY    63  58  83 S7        29.92S
PORTLAND, OR   CLOUDY    65  57  75 S8        29.93F
$$

WAZ021-516-517-301700-
WASHINGTON COAST

CITY           SKY/WX    TMP DP  RH WIND       PRES   REMARKS
FORKS          CLOUDY    60  59  96 S3        29.90R
HOQUIAM        LGT RAIN  60  59  96 NE9       29.88S FOG
ASTORIA, OR    CLOUDY    62  59  90 S10       29.88F
$$

WAZ019-023-024-040-518-519-301700-
CASCADE MOUNTAINS AND COLUMBIA GORGE

CITY           SKY/WX    TMP DP  RH WIND       PRES   REMARKS
STAMPEDE PASS  CLOUDY    49  46  90 CALM      29.96
TROUTDALE, OR  CLOUDY    66  57  72 SE5       29.93S
THE DALLES, OR CLOUDY    71  54  54 W8        29.90F
$$

WAZ026-027-041>044-520-521-301700-
EAST SLOPES

CITY           SKY/WX    TMP DP  RH WIND       PRES   REMARKS
OMAK           MOSUNNY   61  44  53 CALM      29.86S
WENATCHEE      PTSUNNY   65  47  52 W8        29.88R
ELLENSBURG     PTSUNNY   65  49  56 NW13      29.90F
YAKIMA         MOSUNNY   66  50  56 CALM      29.89F
$$

WAZ028-034-035-301700-
COLUMBIA BASIN

CITY           SKY/WX    TMP DP  RH WIND       PRES   REMARKS
EPHRATA        MOSUNNY   68  47  46 SW7       29.85F
MOSES LAKE     SUNNY     69  49  48 SW8       29.87S
PASCO          MOSUNNY   69  53  56 NW6       29.88S
HERMISTON, OR  PTSUNNY   67  53  61 VRB3      29.90R
$$

WAZ036>038-301700-
NORTHEAST WASHINGTON

CITY           SKY/WX    TMP DP  RH WIND       PRES   REMARKS
SPOKANE GEIGER MOSUNNY   61  45  55 SW9       29.88S
SPOKANE FELTS  SUNNY     62  45  53 S6        29.89S
FAIRCHILD AFB  SUNNY     62  45  53 SW9       29.89
COEURDALENE,ID SUNNY     61  45  55 S6        29.89S
DEER PARK      SUNNY     59  44  57 VRB7      29.88S
$$

WAZ029>033-301700-
SOUTHEAST WASHINGTON

CITY           SKY/WX    TMP DP  RH WIND       PRES   REMARKS
PULLMAN        SUNNY     63  45  51 W13       29.94S
LEWISTON, ID   MOSUNNY   70  46  42 CALM      29.90S
WALLA WALLA    MOSUNNY   70  48  45 S17       29.91F
PENDLETON, OR  CLOUDY    67  47  48 W16       29.92S
$$


USA.gov is the U.S. government's official web portal to all federal, state and local government web resources and services.